Date String (YYYY-MM-DD hh:mm:ss) UTC,Instrument flags,absolute air pressure of the measurement (hPa),sample flow rate (lpm),inlet stack bypass flow (lpm),air temperature of the measurement (°C),ambient temperature measured by the external sensor (°C),aerosol sample conditioner tube jacket temperature (°C),OPC LED temperature (°C),internal box temperature (°C),relative humidity of the measurement (%),span deviation,mass concentration of particles derived from Lorenz-Mie calculation of OPC scattering (μg/m³),mass concentration of particles derived from Lorenz-Mie calculation of OPC scattering (μg/m³),mass concentration of particles derived from Lorenz-Mie calculation of OPC scattering (μg/m³)
DateTimeUTC,F1_M11,P_M11,Q1_M11,Q2_M11,T1_M11,T2_M11,T3_M11,T4_M11,T5_M11,U1_M11,ZSPAN_M11,X2_M11,X0_M11,X1_M11
2023-07-21 10:00:00,SystemResetWarning,0838.4,5.00,000.00,030.1,028.8,000.0,038.6,031.7,33.6,0000.0,0003.53,0005.14,0003.37
2023-07-21 10:01:00,SystemResetWarning,0838.4,5.00,000.00,030.1,028.8,000.0,038.6,031.7,33.6,0000.0,0003.51,0005.10,0003.35
2023-07-21 10:02:00,SystemResetWarning,0838.4,5.00,000.00,030.1,028.9,000.0,038.6,031.7,33.6,0000.0,0003.48,0005.03,0003.33
2023-07-21 10:03:00,SystemResetWarning,0838.4,5.00,000.00,030.1,028.9,000.0,038.6,031.7,33.5,0000.0,0003.44,0004.93,0003.30
2023-07-21 10:04:00,SystemResetWarning,0838.4,5.00,000.00,030.1,028.9,000.0,038.6,031.7,33.3,0000.0,0003.41,0004.83,0003.28
2023-07-21 10:05:00,SystemResetWarning,0838.4,5.00,000.00,030.1,028.9,000.0,038.6,031.7,33.1,0000.0,0003.38,0004.77,0003.25
2023-07-21 10:06:00,SystemResetWarning,0838.4,5.00,000.00,030.2,028.9,000.0,038.6,031.7,33.1,0000.0,0003.34,0004.72,0003.22
2023-07-21 10:07:00,SystemResetWarning,0838.4,5.00,000.00,030.2,028.9,000.0,038.6,031.7,33.1,0000.0,0003.29,0004.74,0003.18
2023-07-21 10:08:00,SystemResetWarning,0838.4,5.00,000.00,030.2,028.8,000.0,038.6,031.7,33.1,0000.0,0003.27,0004.55,0003.15
2023-07-21 10:09:00,SystemResetWarning,0838.3,4.99,000.00,030.2,027.1,000.0,038.5,031.5,33.1,0000.0,0003.23,0004.40,0003.11
2023-07-21 10:10:00,SystemResetWarning,0838.3,5.01,000.00,030.1,025.6,000.0,038.4,031.3,33.3,0000.0,0003.21,0004.36,0003.07
2023-07-21 10:11:00,SystemResetWarning,0838.2,5.01,000.00,029.9,025.3,000.0,038.3,030.9,33.5,0000.0,0003.19,0004.24,0003.04
2023-07-21 10:12:00,SystemResetWarning,0838.1,5.00,000.00,029.8,025.6,000.0,038.3,030.8,33.6,0000.0,0003.19,0004.19,0003.03
2023-07-21 10:13:00,SystemResetWarning,0838.2,5.00,000.00,029.7,026.0,000.0,038.3,030.8,33.6,0000.0,0003.20,0004.26,0003.01
2023-07-21 10:14:00,SystemResetWarning,0838.2,5.00,000.00,029.7,026.4,000.0,038.3,030.9,33.6,0000.0,0003.19,0004.32,0002.99
2023-07-21 10:15:00,SystemResetWarning,0838.3,5.00,000.00,029.6,026.8,000.0,038.3,031.0,33.6,0000.0,0003.18,0004.99,0002.98
2023-07-21 10:16:00,SystemResetWarning,0838.3,5.00,000.00,029.6,027.1,000.0,038.3,031.0,33.4,0000.0,0003.20,0005.15,0002.98
2023-07-21 10:17:00,SystemResetWarning,0838.3,4.99,000.00,029.6,027.3,000.0,038.3,031.1,33.5,0000.0,0003.21,0005.13,0003.01
2023-07-21 10:18:00,SystemResetWarning,0838.3,5.00,000.00,029.6,027.6,000.0,038.3,031.1,33.5,0000.0,0003.25,0005.01,0003.07
2023-07-21 10:19:00,SystemResetWarning,0838.3,5.00,000.00,029.7,027.8,000.0,038.3,031.1,33.5,0000.0,0003.25,0004.96,0003.10
2023-07-21 10:20:00,SystemResetWarning,0838.4,5.00,000.00,029.7,027.9,000.0,038.3,031.2,33.5,0000.0,0003.28,0005.04,0003.12
2023-07-21 10:21:00,SystemResetWarning,0838.4,5.00,000.00,029.7,028.0,000.0,038.3,031.2,33.2,0000.0,0003.31,0005.13,0003.14
2023-07-21 10:22:00,SystemResetWarning,0838.5,5.00,000.00,029.7,028.1,000.0,038.3,031.2,32.9,0000.0,0003.33,0005.17,0003.15
2023-07-21 10:23:00,SystemResetWarning,0838.5,5.00,000.00,029.7,028.2,000.0,038.3,031.3,32.8,0000.0,0003.35,0005.22,0003.16
2023-07-21 10:24:00,SystemResetWarning,0838.5,5.00,000.00,029.7,028.3,000.0,038.3,031.3,32.8,0000.0,0003.36,0005.25,0003.18
2023-07-21 10:25:00,SystemResetWarning,0838.5,5.00,000.00,029.7,028.3,000.0,038.3,031.3,32.8,0000.0,0003.39,0005.31,0003.20
2023-07-21 10:26:00,SystemResetWarning,0838.4,5.00,000.00,029.8,028.4,000.0,038.3,031.3,32.8,0000.0,0003.43,0004.78,0003.24
2023-07-21 10:27:00,SystemResetWarning,0838.4,4.99,000.00,029.8,028.4,000.0,038.3,031.4,32.7,0000.0,0003.45,0004.59,0003.25
2023-07-21 10:28:00,SystemResetWarning,0838.4,4.99,000.00,029.8,028.5,000.0,038.3,031.4,32.8,0000.0,0003.47,0004.69,0003.27
2023-07-21 10:29:00,SystemResetWarning,0838.4,5.00,000.00,029.8,028.5,000.0,038.3,031.4,32.8,0000.0,0003.49,0004.77,0003.28
2023-07-21 10:30:00,SystemResetWarning,0838.4,5.01,000.00,029.8,028.5,000.0,038.3,031.4,32.7,0000.0,0003.50,0005.83,0003.28
2023-07-21 10:31:00,SystemResetWarning,0838.4,5.01,000.00,029.8,028.6,000.0,038.3,031.4,32.6,0000.0,0003.52,0006.76,0003.28
2023-07-21 10:32:00,SystemResetWarning,0838.4,5.01,000.00,029.9,028.6,000.0,038.3,031.4,32.6,0000.0,0003.51,0006.72,0003.30
2023-07-21 10:33:00,SystemResetWarning,0838.4,5.00,000.00,029.9,028.6,000.0,038.3,031.4,32.6,0000.0,0003.52,0006.86,0003.31
2023-07-21 10:34:00,SystemResetWarning,0838.4,4.98,000.00,029.9,028.6,000.0,038.4,031.5,32.7,0000.0,0003.56,0007.42,0003.33
2023-07-21 10:35:00,SystemResetWarning,0838.5,5.01,000.00,029.9,028.7,000.0,038.4,031.5,32.6,0000.0,0003.61,0007.55,0003.36
2023-07-21 10:36:00,SystemResetWarning,0838.5,5.00,000.00,029.9,028.7,000.0,038.4,031.5,32.5,0000.0,0003.67,0007.63,0003.39
2023-07-21 10:37:00,SystemResetWarning,0838.5,4.99,000.00,030.0,028.7,000.0,038.4,031.5,32.5,0000.0,0003.73,0007.74,0003.43
2023-07-21 10:38:00,SystemResetWarning,0838.5,5.00,000.00,030.0,028.7,000.0,038.4,031.5,32.5,0000.0,0003.81,0007.84,0003.49
2023-07-21 10:39:00,SystemResetWarning,0838.5,5.02,000.00,030.0,028.7,000.0,038.4,031.6,32.4,0000.0,0003.85,0007.89,0003.54
2023-07-21 10:40:00,SystemResetWarning,0838.4,4.99,000.00,030.0,028.7,000.0,038.4,031.6,32.3,0000.0,0003.89,0007.89,0003.61
2023-07-21 10:41:00,SystemResetWarning,0838.4,4.98,000.00,030.0,028.8,000.0,038.5,031.6,32.3,0000.0,0003.96,0007.23,0003.68
2023-07-21 10:42:00,SystemResetWarning,0838.4,5.01,000.00,030.0,028.8,000.0,038.5,031.6,32.2,0000.0,0004.00,0006.56,0003.73
2023-07-21 10:43:00,SystemResetWarning,0838.4,5.02,000.00,030.0,028.8,000.0,038.5,031.6,32.2,0000.0,0004.06,0007.03,0003.78
2023-07-21 10:44:00,SystemResetWarning,0838.4,4.99,000.00,030.1,028.8,000.0,038.5,031.6,32.3,0000.0,0004.11,0007.04,0003.82
2023-07-21 10:45:00,SystemResetWarning,0838.4,4.98,000.00,030.1,028.8,000.0,038.5,031.6,32.2,0000.0,0004.13,0006.45,0003.86
2023-07-21 10:46:00,SystemResetWarning,0838.4,5.00,000.00,030.1,028.8,000.0,038.5,031.6,32.0,0000.0,0004.13,0006.32,0003.89
2023-07-21 10:47:00,SystemResetWarning,0838.4,5.01,000.00,030.1,028.8,000.0,038.5,031.7,31.9,0000.0,0004.13,0006.52,0003.92
2023-07-21 10:48:00,SystemResetWarning,0838.4,5.01,000.00,030.1,028.8,000.0,038.6,031.7,31.8,0000.0,0004.14,0006.49,0003.94
2023-07-21 10:49:00,SystemResetWarning,0838.5,5.01,000.00,030.1,028.8,000.0,038.6,031.7,31.9,0000.0,0004.15,0007.02,0003.95
2023-07-21 10:50:00,SystemResetWarning,0838.5,4.99,000.00,030.1,028.9,000.0,038.6,031.7,31.9,0000.0,0004.17,0007.33,0003.96
2023-07-21 10:51:00,SystemResetWarning,0838.6,4.99,000.00,030.2,028.9,000.0,038.6,031.7,32.1,0000.0,0004.17,0007.33,0003.97
2023-07-21 10:52:00,SystemResetWarning,0838.6,5.00,000.00,030.2,028.9,000.0,038.6,031.7,32.1,0000.0,0004.16,0007.35,0003.97
2023-07-21 10:53:00,SystemResetWarning,0838.6,5.00,000.00,030.2,028.9,000.0,038.6,031.7,32.1,0000.0,0004.21,0007.53,0003.98
2023-07-21 10:54:00,SystemResetWarning,0838.6,5.00,000.00,030.2,028.9,000.0,038.6,031.8,32.0,0000.0,0004.24,0007.43,0004.00
2023-07-21 10:55:00,SystemResetWarning,0838.6,5.00,000.00,030.2,028.9,000.0,038.6,031.7,31.9,0000.0,0004.28,0007.55,0004.00
2023-07-21 10:56:00,SystemResetWarning,0838.6,5.01,000.00,030.2,028.9,000.0,038.6,031.8,31.9,0000.0,0004.27,0007.75,0004.00
2023-07-21 10:57:00,SystemResetWarning,0838.5,5.01,000.00,030.2,028.9,000.0,038.7,031.8,31.9,0000.0,0004.24,0007.89,0003.98
2023-07-21 10:58:00,SystemResetWarning,0838.6,5.00,000.00,030.2,028.9,000.0,038.7,031.8,31.7,0000.0,0004.22,0007.71,0003.95
2023-07-21 10:59:00,SystemResetWarning,0838.6,5.01,000.00,030.2,028.9,000.0,038.7,031.8,31.6,0000.0,0004.17,0007.63,0003.91
